Theta_e
332 332 331 330 330 329 329 328 329 329 328 326 326 325 324 324 324 324 325 325 325 325 325 325 326 326 327 327 328 327 324 330
334 333 332 332 331 331 330 330 330 331 331 331 331 331 330 329 328 327 327 327 327 327 327 328 328 329 330 331 332 332 332 330
337 334 333 333 333 332 332 332 332 332 332 333 333 333 333 333 333 332 331 330 330 330 330 330 331 331 332 333 334 334 334 334
335 335 334 333 332 332 333 333 333 333 333 332 332 332 332 333 334 334 333 335 336 334 334 334 334 334 335 335 335 336 336 335
335 334 333 332 332 333 333 333 333 333 333 334 333 333 333 332 334 335 336 336 335 336 338 336 336 336 335 335 336 336 335 334
335 334 333 333 333 334 334 335 334 332 329 323 319 319 320 325 334 333 334 333 333 333 334 334 335 335 335 335 334 334 334 333
336 335 335 336 337 336 335 332 326 320 318 317 315 314 314 318 327 329 329 330 331 332 331 331 332 333 335 335 334 333 333 332
338 339 339 337 337 334 329 325 323 319 317 315 313 312 313 314 318 325 326 328 329 330 329 331 333 333 333 332 332 333 333 333
338 337 337 339 337 337 330 327 325 323 319 314 311 311 312 314 314 317 325 325 327 328 328 328 330 331 330 329 329 329 329 326
338 336 335 338 334 334 332 329 328 323 318 312 311 312 313 314 315 315 319 319 323 325 326 327 326 326 327 327 324 322 320 320
338 334 332 333 331 328 326 325 323 318 313 311 311 312 313 314 314 316 320 320 321 321 323 325 326 325 324 322 321 318 317 317
338 336 333 328 327 324 322 320 316 313 312 311 311 311 312 313 314 317 319 317 317 317 317 318 318 317 318 316 314 316 318 322
338 336 332 330 326 323 320 318 315 313 312 311 310 310 311 312 313 313 313 311 311 311 310 311 310 309 307 311 317 319 320 320
336 334 332 329 325 323 321 318 316 314 312 311 310 309 310 310 311 310 310 309 309 307 307 306 305 305 308 314 318 316 317 317
332 330 328 327 325 323 319 316 314 313 312 311 310 309 309 309 309 309 307 307 305 303 303 303 304 304 311 314 317 316 314 311
329 328 326 325 323 322 321 319 317 315 313 312 311 309 309 308 307 306 304 303 304 303 303 304 305 305 307 312 315 316 315 307
327 326 325 324 323 321 320 319 316 315 314 314 312 310 307 305 304 303 303 303 304 304 303 304 305 305 306 311 312 314 314 310
325 324 323 322 321 320 319 318 317 316 315 314 313 310 306 303 302 303 303 303 303 303 303 304 304 305 305 305 305 310 312 312
323 322 322 321 320 319 319 318 316 316 315 315 314 310 307 303 302 303 304 304 304 303 303 303 303 304 303 304 303 304 306 309
322 321 320 320 319 318 318 317 316 315 315 315 313 311 308 305 302 302 303 303 303 302 302 302 302 302 302 302 302 302 301 301
Wind_Speed
25 24 22 20 18 17 16 15 14 14 13 12 11 11 11 10 10 11 10 10 10 10 9 8 7 7 6 6 5 6 8 9
23 25 23 21 20 18 17 15 14 13 13 13 12 13 12 13 13 13 14 14 13 13 12 12 10 10 9 9 9 8 8 9
24 26 25 22 20 19 17 17 16 16 15 15 15 16 15 16 15 17 17 17 17 16 16 14 13 12 12 12 11 9 11 9
26 27 25 23 21 19 19 18 17 17 16 16 16 16 17 17 16 17 16 14 14 15 16 14 14 13 13 12 10 10 9 9
29 27 25 23 21 21 20 19 18 17 17 16 17 18 19 16 14 13 13 14 13 13 11 12 12 12 11 10 6 7 6 5
28 26 25 23 21 22 20 20 19 17 16 15 16 17 18 17 15 16 16 16 15 13 13 13 11 10 8 6 5 4 5 5
25 26 26 23 22 21 21 21 18 15 13 12 13 15 15 15 17 16 15 15 15 16 14 15 13 13 11 12 12 11 12 14
25 24 22 23 24 22 22 21 17 14 13 13 14 14 12 11 13 15 17 17 18 18 16 18 16 16 16 16 15 14 16 16
24 24 25 25 23 22 21 19 18 16 16 15 15 15 14 12 12 15 17 17 18 18 18 17 16 15 14 16 14 11 14 14
26 27 27 29 25 23 22 22 21 20 19 17 16 15 15 15 13 15 15 14 17 18 18 18 18 17 18 14 11 10 11 12
31 28 27 30 29 27 26 25 25 23 20 17 15 16 17 17 15 17 18 16 17 17 16 17 17 17 15 14 12 12 9 9
34 31 28 28 30 30 28 27 25 22 19 16 14 16 18 17 16 19 20 18 17 16 16 16 16 16 14 11 11 10 6 5
39 35 32 29 31 32 30 27 24 23 20 16 14 17 18 18 19 19 19 16 15 15 16 15 14 13 14 18 14 13 11 11
43 36 31 28 26 25 24 23 23 23 22 19 16 17 19 19 19 19 18 17 16 15 16 16 15 15 19 25 18 18 15 12
42 35 29 25 20 19 19 21 22 25 25 20 19 19 21 20 19 19 18 17 16 16 17 17 17 19 26 17 15 10 22 12
36 30 25 17 15 15 18 21 24 26 21 19 20 20 22 22 20 21 19 18 18 17 18 18 18 20 30 23 17 18 17 12
31 23 18 13 15 16 16 19 21 20 20 21 21 19 21 22 22 22 21 20 18 19 19 20 19 18 23 26 20 20 20 21
20 17 13 14 15 14 15 16 20 21 23 24 23 22 22 23 23 22 22 22 20 19 19 19 19 19 19 20 20 22 25 21
13 13 12 13 14 15 18 19 22 23 23 25 27 23 22 23 24 23 23 22 20 20 20 20 19 18 18 18 19 19 21 23
9 11 13 14 15 17 17 21 23 26 25 25 26 22 20 22 24 24 22 21 20 20 19 19 19 18 17 17 17 17 16 16
Wind_Direction
189 194 193 191 191 192 193 193 193 198 201 203 206 213 220 223 226 229 234 238 240 243 243 245 249 251 252 254 234 205 209 220
201 200 199 198 197 199 200 201 202 206 213 213 216 222 227 231 233 235 236 238 241 244 246 247 247 250 253 251 252 247 228 224
206 202 203 202 201 204 204 205 207 210 215 219 223 228 231 236 239 241 240 240 242 244 247 248 252 254 257 259 262 259 257 244
198 201 204 205 205 207 208 210 213 218 221 226 233 236 238 241 240 249 248 246 248 248 250 245 245 247 251 257 264 262 256 241
199 201 204 207 207 208 210 212 216 220 227 233 241 244 245 242 247 242 242 245 251 250 252 241 234 238 236 234 230 235 244 239
201 200 202 205 210 214 215 215 217 221 232 238 247 249 253 243 239 244 249 251 251 251 244 246 239 231 224 226 236 237 216 218
208 201 203 204 204 203 207 211 216 223 235 248 254 256 258 252 237 233 233 237 241 237 238 243 235 227 217 214 232 238 235 240
210 205 205 199 201 203 208 216 224 230 244 258 265 262 259 252 235 228 228 228 233 237 235 237 239 241 242 243 244 237 246 241
210 208 201 207 205 210 218 225 235 246 253 258 259 258 260 251 240 237 230 230 228 230 230 233 232 240 243 250 253 246 246 246
206 205 206 206 208 214 221 230 242 249 254 258 258 257 258 255 251 247 241 238 233 234 236 236 235 235 241 239 239 239 229 238
208 203 205 208 211 212 219 228 236 242 247 248 246 245 249 253 254 249 246 246 247 242 234 232 230 232 230 229 228 224 232 240
212 213 213 214 217 218 222 230 233 236 239 243 242 242 243 246 245 247 247 248 244 239 234 227 226 222 216 203 182 189 199 207
213 216 213 217 216 219 223 230 237 243 245 243 238 240 242 239 240 242 248 243 236 231 228 222 215 202 188 165 149 159 173 184
210 215 222 222 225 225 226 231 238 245 250 249 248 242 240 237 239 244 244 239 234 225 220 213 205 185 171 163 143 151 172 197
205 208 215 219 223 222 222 226 232 240 245 252 257 250 243 237 234 238 237 237 233 227 221 214 210 186 176 172 157 179 162 163
205 208 211 218 226 236 244 250 248 248 252 255 256 253 245 241 233 237 234 235 232 226 224 218 214 202 188 195 199 191 180 161
204 206 212 229 253 254 251 252 255 256 253 255 261 259 247 242 236 237 238 234 233 228 225 221 216 215 204 209 210 192 195 184
206 212 234 253 257 265 270 271 264 260 263 267 270 264 250 242 242 237 239 235 228 228 225 227 224 221 221 216 215 200 201 196
217 239 257 266 265 278 283 274 264 264 264 273 278 266 257 250 242 238 236 239 236 231 226 224 226 226 224 224 219 214 215 212
263 277 293 273 272 274 274 268 262 260 265 277 276 267 263 261 250 241 237 236 234 230 228 226 226 225 225 224 222 220 217 214